GW0655 Weather Reports


time (UTC)temp
C
wind
direction
speed
KPH
gust
KPH
rain 1hr
cm
rain 24hr
cm
rain mn
cm
humidity
%
barometer
mb
20260906220100 32 215 0.0 0.0 0.00 0.00 0.00 56 1013.5
20260906215559 33 146 4.8 4.8 0.00 0.00 0.00 54 1013.5
20260906215057 32 243 3.2 3.2 0.00 0.00 0.00 55 1013.5
20260906214556 32 228 0.0 1.6 0.00 0.00 0.00 55 1013.5
20260906214051 32 219 3.2 3.2 0.00 0.00 0.00 55 1013.5
20260906213550 32 238 0.0 1.6 0.00 0.00 0.00 57 1013.5
20260906213044 31 210 1.6 1.6 0.00 0.00 0.00 62 1013.5
20260906212538 31 170 4.8 4.8 0.00 0.00 0.00 64 1013.5
20260906212034 31 58 1.6 1.6 0.00 0.00 0.00 65 1014.1
20260906211533 31 259 1.6 3.2 0.00 0.00 0.00 64 1013.8
20260906211028 31 229 1.6 3.2 0.00 0.00 0.00 62 1013.8
20260906210523 30 175 3.2 3.2 0.00 0.00 0.00 65 1013.8
20260906210018 30 202 6.4 8.0 0.00 0.00 0.00 68 1014.1
20260906205514 30 175 1.6 3.2 0.00 0.00 0.00 71 1013.8
20260906205010 29 154 0.0 1.6 0.00 0.00 0.00 74 1014.1
20260906204509 29 159 4.8 8.0 0.00 0.00 0.00 73 1014.1
20260906204003 29 151 6.4 8.0 0.00 0.00 0.00 72 1014.5
20260906203458 29 243 3.2 3.2 0.00 0.00 0.00 71 1014.5
20260906202956 28 149 1.6 3.2 0.00 0.00 0.00 70 1014.5
20260906202454 28 239 3.2 3.2 0.00 0.00 0.00 72 1014.5
20260906201949 28 237 3.2 3.2 0.00 0.00 0.00 71 1014.5
20260906201444 30 214 8.0 9.7 0.00 0.00 0.00 70 1014.5
20260906200938 30 164 4.8 4.8 0.00 0.00 0.00 66 1014.8
20260906200435 30 228 1.6 1.6 0.00 0.00 0.00 65 1014.8
20260906195935 31 171 8.0 11.3 0.00 0.00 0.00 57 1014.5
20260906195431 31 265 4.8 8.0 0.00 0.00 0.00 65 1014.5
20260906194927 32 184 3.2 3.2 0.00 0.00 0.00 57 1014.8
20260906194423 32 137 8.0 14.5 0.00 0.00 0.00 55 1014.8
20260906193918 34 54 1.6 1.6 0.00 0.00 0.00 53 1014.5
20260906193413 34 298 0.0 1.6 0.00 0.00 0.00 50 1014.5
20260906192908 34 162 1.6 3.2 0.00 0.00 0.00 50 1014.8
20260906192408 34 348 4.8 8.0 0.00 0.00 0.00 50 1014.5
20260906191902 35 303 4.8 4.8 0.00 0.00 0.00 50 1014.5
20260906191356 35 313 0.0 0.0 0.00 0.00 0.00 50 1014.5
20260906190856 35 305 1.6 1.6 0.00 0.00 0.00 51 1014.8
20260906190355 35 276 4.8 8.0 0.00 0.00 0.00 50 1014.8
20260906185850 35 21 3.2 3.2 0.00 0.00 0.00 50 1014.8
20260906185349 34 79 1.6 3.2 0.00 0.00 0.00 53 1014.8
20260906184849 35 315 3.2 3.2 0.00 0.00 0.00 52 1015.2
20260906184344 35 279 6.4 8.0 0.00 0.00 0.00 50 1014.8
20260906183839 36 331 4.8 4.8 0.00 0.00 0.00 49 1014.8
20260906183335 37 318 4.8 4.8 0.00 0.00 0.00 47 1014.8
20260906182830 37 304 3.2 3.2 0.00 0.00 0.00 47 1014.8
20260906182326 37 323 4.8 4.8 0.00 0.00 0.00 46 1015.2
20260906181826 37 71 0.0 0.0 0.00 0.00 0.00 47 1014.8
20260906181323 37 261 1.6 1.6 0.00 0.00 0.00 47 1014.8
20260906180817 35 173 3.2 4.8 0.00 0.00 0.00 46 1015.2
20260906180312 35 206 8.0 11.3 0.00 0.00 0.00 47 1015.5
20260906175809 36 248 4.8 4.8 0.00 0.00 0.00 45 1015.5
20260906175306 36 251 0.0 1.6 0.00 0.00 0.00 44 1015.5
20260906174804 35 163 3.2 3.2 0.00 0.00 0.00 47 1015.5
20260906174258 35 263 4.8 4.8 0.00 0.00 0.00 46 1015.5
20260906173753 35 189 1.6 1.6 0.00 0.00 0.00 48 1015.8
20260906173249 35 248 3.2 3.2 0.00 0.00 0.00 49 1016.2
20260906172748 35 228 4.8 8.0 0.00 0.00 0.00 50 1015.8
20260906172243 35 265 1.6 3.2 0.00 0.00 0.00 50 1016.2
20260906171738 33 233 3.2 3.2 0.00 0.00 0.00 53 1016.2
20260906171234 33 178 4.8 4.8 0.00 0.00 0.00 55 1016.2
20260906170729 33 283 1.6 1.6 0.00 0.00 0.00 56 1016.5
20260906170225 32 218 3.2 3.2 0.00 0.00 0.00 57 1016.2
20260906165721 32 314 1.6 1.6 0.00 0.00 0.00 58 1016.5
20260906165221 32 202 0.0 1.6 0.00 0.00 0.00 60 1016.5
20260906164715 32 208 4.8 8.0 0.00 0.00 0.00 60 1016.2
20260906164210 32 138 1.6 3.2 0.00 0.00 0.00 61 1016.5
20260906163706 32 205 0.0 0.0 0.00 0.00 0.00 61 1016.9
20260906163202 32 231 3.2 3.2 0.00 0.00 0.00 59 1016.5
20260906162659 33 209 1.6 1.6 0.00 0.00 0.00 58 1016.5
20260906162158 33 223 1.6 1.6 0.00 0.00 0.00 57 1016.5
20260906161653 33 219 3.2 3.2 0.00 0.00 0.00 59 1016.5
20260906161152 33 264 1.6 1.6 0.00 0.00 0.00 62 1016.5
20260906160651 32 263 1.6 1.6 0.00 0.00 0.00 63 1016.9
20260906160150 31 278 0.0 1.6 0.00 0.00 0.00 67 1016.5
20260906155648 30 235 1.6 1.6 0.00 0.00 0.00 71 1016.9
20260906155144 30 219 4.8 8.0 0.00 0.00 0.00 72 1016.5
20260906154639 30 255 3.2 4.8 0.00 0.00 0.00 72 1016.5
20260906154139 30 170 3.2 3.2 0.00 0.00 0.00 72 1016.5
20260906153637 30 150 1.6 3.2 0.00 0.00 0.00 72 1016.5
20260906153133 30 237 3.2 3.2 0.00 0.00 0.00 73 1016.9
20260906152627 30 199 3.2 4.8 0.00 0.00 0.00 74 1016.5
20260906152121 29 234 0.0 1.6 0.00 0.00 0.00 74 1016.2
20260906151616 30 245 0.0 0.0 0.00 0.00 0.00 73 1016.2
20260906151112 30 125 3.2 3.2 0.00 0.00 0.00 74 1016.5
20260906150607 29 214 3.2 3.2 0.00 0.00 0.00 75 1016.2
20260906145601 29 86 1.6 3.2 0.00 0.00 0.00 75 1016.2
20260906145055 29 157 3.2 3.2 0.00 0.00 0.00 76 1016.2
20260906144550 29 246 0.0 0.0 0.00 0.00 0.00 77 1016.2
20260906144045 28 226 3.2 3.2 0.00 0.00 0.00 78 1016.2
20260906143540 28 223 3.2 3.2 0.00 0.00 0.00 79 1016.2
20260906143032 28 236 1.6 1.6 0.00 0.00 0.00 80 1016.5
20260906142530 28 256 3.2 4.8 0.00 0.00 0.00 80 1016.2
20260906142027 28 170 1.6 3.2 0.00 0.00 0.00 80 1016.2
20260906141525 28 203 1.6 1.6 0.00 0.00 0.00 81 1016.2
20260906141021 28 213 3.2 3.2 0.00 0.00 0.00 80 1016.2
20260906140514 28 185 1.6 3.2 0.00 0.00 0.00 80 1016.2
20260906140014 27 269 1.6 1.6 0.00 0.00 0.00 82 1015.8
20260906135511 28 144 0.0 1.6 0.00 0.00 0.00 82 1016.2
20260906135007 27 171 4.8 8.0 0.00 0.00 0.00 82 1016.2
20260906134503 27 230 0.0 0.0 0.00 0.00 0.00 83 1016.2
20260906134003 27 177 1.6 3.2 0.00 0.00 0.00 83 1015.8
20260906133458 28 168 6.4 8.0 0.00 0.00 0.00 81 1015.8
20260906132954 27 192 0.0 1.6 0.00 0.00 0.00 82 1015.8
20260906132449 27 207 3.2 3.2 0.00 0.00 0.00 83 1015.5
20260906131944 27 217 3.2 3.2 0.00 0.00 0.00 84 1015.8
20260906131439 27 209 1.6 3.2 0.00 0.00 0.00 84 1015.8
20260906130935 26 154 1.6 3.2 0.00 0.00 0.00 86 1015.5
20260906130434 26 240 1.6 1.6 0.00 0.00 0.00 86 1015.5
20260906125929 26 155 3.2 3.2 0.00 0.00 0.00 87 1015.5
20260906125426 26 183 0.0 0.0 0.00 0.00 0.00 88 1015.5
20260906124926 26 226 0.0 0.0 0.00 0.00 0.00 88 1015.2
20260906124422 25 225 0.0 0.0 0.00 0.00 0.00 88 1015.2
20260906123921 25 225 0.0 0.0 0.00 0.00 0.00 88 1015.2
20260906123416 25 224 0.0 0.0 0.00 0.00 0.00 88 1015.2
20260906122916 25 234 0.0 0.0 0.00 0.00 0.00 88 1014.8
20260906122410 25 226 0.0 0.0 0.00 0.00 0.00 87 1014.8
20260906121908 25 233 0.0 0.0 0.00 0.00 0.00 87 1014.8
20260906121403 25 239 0.0 0.0 0.00 0.00 0.00 87 1014.8
20260906120859 25 237 0.0 0.0 0.00 0.00 0.00 87 1014.8
20260906120354 25 238 0.0 0.0 0.00 0.00 0.00 87 1014.8
20260906115851 25 228 0.0 1.6 0.00 0.00 0.00 86 1014.8
20260906115346 25 244 0.0 0.0 0.00 0.00 0.00 86 1014.5
20260906114845 26 235 0.0 0.0 0.00 0.00 0.00 86 1014.5
20260906114340 26 229 0.0 0.0 0.00 0.00 0.00 85 1014.1
20260906113835 26 246 0.0 0.0 0.00 0.00 0.00 85 1014.1
20260906113334 26 231 0.0 0.0 0.00 0.00 0.00 85 1014.1
20260906112830 26 231 0.0 0.0 0.00 0.00 0.00 85 1013.8
20260906112326 26 218 0.0 1.6 0.00 0.00 0.00 85 1013.8
20260906111825 26 225 1.6 1.6 0.00 0.00 0.00 85 1013.8
20260906111320 26 231 0.0 0.0 0.00 0.00 0.00 85 1013.8
20260906110815 26 225 0.0 0.0 0.00 0.00 0.00 85 1013.8
20260906110311 26 272 0.0 0.0 0.00 0.00 0.00 85 1013.8
20260906105809 26 239 0.0 0.0 0.00 0.00 0.00 85 1013.8
20260906105306 26 224 0.0 0.0 0.00 0.00 0.00 85 1013.8
20260906104801 26 233 0.0 0.0 0.00 0.00 0.00 84 1013.5
20260906104259 26 238 0.0 0.0 0.00 0.00 0.00 84 1013.5
20260906103757 26 230 0.0 0.0 0.00 0.00 0.00 84 1013.8
20260906103252 26 229 0.0 0.0 0.00 0.00 0.00 84 1013.8
20260906102748 26 237 0.0 0.0 0.00 0.00 0.00 83 1013.8
20260906102246 26 233 0.0 0.0 0.00 0.00 0.00 83 1013.8
20260906101742 26 229 0.0 1.6 0.00 0.00 0.00 82 1013.8
20260906101236 26 242 0.0 0.0 0.00 0.00 0.00 82 1013.8
20260906100732 27 214 0.0 0.0 0.00 0.00 0.00 81 1013.5
20260906100231 27 240 1.6 1.6 0.00 0.00 0.00 81 1013.8
20260906095727 27 232 1.6 1.6 0.00 0.00 0.00 81 1013.5
20260906095222 27 207 1.6 1.6 0.00 0.00 0.00 81 1013.8
20260906094721 27 223 1.6 1.6 0.00 0.00 0.00 81 1013.8
20260906094216 27 235 1.6 1.6 0.00 0.00 0.00 80 1013.8
20260906093713 27 208 0.0 0.0 0.00 0.00 0.00 80 1013.5
20260906093208 27 237 1.6 1.6 0.00 0.00 0.00 80 1013.8
20260906092703 27 194 0.0 1.6 0.00 0.00 0.00 79 1013.8
20260906092202 27 175 4.8 4.8 0.00 0.00 0.00 79 1013.8
20260906091659 27 254 0.0 0.0 0.00 0.00 0.00 79 1013.8
20260906091155 27 254 0.0 0.0 0.00 0.00 0.00 79 1013.8
20260906090651 27 206 1.6 1.6 0.00 0.00 0.00 79 1013.5
20260906090150 27 213 3.2 3.2 0.00 0.00 0.00 78 1013.5
20260906085648 27 190 3.2 3.2 0.00 0.00 0.00 78 1013.8
20260906085143 27 199 1.6 3.2 0.00 0.00 0.00 78 1013.8
20260906084638 27 232 1.6 3.2 0.00 0.00 0.00 78 1013.8
20260906084137 27 221 1.6 3.2 0.00 0.00 0.00 78 1013.8
20260906083632 27 229 1.6 3.2 0.00 0.00 0.00 78 1013.8
20260906083127 27 199 3.2 3.2 0.00 0.00 0.00 78 1013.5
20260906082623 27 185 1.6 1.6 0.00 0.00 0.00 78 1013.8
20260906082118 27 240 0.0 0.0 0.00 0.00 0.00 78 1013.8
20260906081614 27 214 1.6 1.6 0.00 0.00 0.00 77 1013.8
20260906081109 27 233 0.0 1.6 0.00 0.00 0.00 77 1013.8
20260906080605 27 208 3.2 3.2 0.00 0.00 0.00 77 1014.1
20260906075555 27 196 1.6 1.6 0.00 0.00 0.00 77 1013.8
20260906075050 27 220 3.2 3.2 0.00 0.00 0.00 76 1014.1
20260906074545 27 217 4.8 4.8 0.00 0.00 0.00 76 1014.1
20260906074043 27 201 3.2 3.2 0.00 0.00 0.00 76 1014.1
20260906073538 27 235 1.6 3.2 0.00 0.00 0.00 75 1014.1
20260906073034 28 182 0.0 1.6 0.00 0.00 0.00 75 1014.1
20260906072529 28 168 1.6 1.6 0.00 0.00 0.00 75 1014.1
20260906072025 28 186 1.6 1.6 0.00 0.00 0.00 75 1014.5
20260906071521 28 159 4.8 4.8 0.00 0.00 0.00 74 1014.1
20260906071016 28 223 1.6 3.2 0.00 0.00 0.00 74 1014.5
20260906070512 28 246 3.2 4.8 0.00 0.00 0.00 74 1014.5
20260906070008 28 235 0.0 1.6 0.00 0.00 0.00 73 1014.5
20260906065502 28 163 1.6 3.2 0.00 0.00 0.00 73 1014.5
20260906064957 28 188 1.6 1.6 0.00 0.00 0.00 73 1014.8
20260906064453 28 224 4.8 4.8 0.00 0.00 0.00 73 1014.5
20260906063948 28 236 1.6 3.2 0.00 0.00 0.00 73 1014.8
20260906063444 28 45 3.2 3.2 0.00 0.00 0.00 73 1014.8
20260906062943 28 237 0.0 0.0 0.00 0.00 0.00 73 1014.8
20260906062439 28 188 4.8 4.8 0.00 0.00 0.00 73 1014.8
20260906061933 28 209 4.8 4.8 0.00 0.00 0.00 73 1014.8
20260906061429 28 176 4.8 4.8 0.00 0.00 0.00 73 1014.8
20260906060924 28 210 4.8 4.8 0.00 0.00 0.00 73 1015.2
20260906060421 28 225 3.2 3.2 0.00 0.00 0.00 73 1014.8
20260906055917 29 228 4.8 4.8 0.00 0.00 0.00 72 1014.8
20260906055413 29 214 1.6 3.2 0.00 0.00 0.00 72 1014.8
20260906054908 29 238 3.2 3.2 0.00 0.00 0.00 72 1014.8
20260906054403 29 226 4.8 4.8 0.00 0.00 0.00 71 1014.5
20260906053859 29 222 3.2 3.2 0.00 0.00 0.00 71 1014.8
20260906053354 29 215 1.6 3.2 0.00 0.00 0.00 70 1014.8
20260906052850 29 229 3.2 3.2 0.00 0.00 0.00 71 1014.8
20260906052346 29 219 4.8 9.7 0.00 0.00 0.00 70 1014.8
20260906051843 30 204 1.6 3.2 0.00 0.00 0.00 69 1014.8
20260906051342 30 254 3.2 3.2 0.00 0.00 0.00 69 1014.5
20260906050839 30 252 1.6 3.2 0.00 0.00 0.00 69 1014.8
20260906050333 30 198 1.6 3.2 0.00 0.00 0.00 68 1014.5
20260906045832 30 192 1.6 1.6 0.00 0.00 0.00 68 1014.5
20260906045326 30 213 1.6 3.2 0.00 0.00 0.00 68 1014.8
20260906044823 30 188 1.6 1.6 0.00 0.00 0.00 68 1014.8
20260906044317 30 221 1.6 1.6 0.00 0.00 0.00 68 1014.8
20260906043813 30 222 1.6 1.6 0.00 0.00 0.00 68 1015.2
20260906043308 30 247 0.0 1.6 0.00 0.00 0.00 69 1014.8
20260906042803 30 237 0.0 0.0 0.00 0.00 0.00 68 1014.8
20260906042306 30 250 1.6 1.6 0.00 0.00 0.00 68 1014.8
20260906041758 30 214 1.6 1.6 0.00 0.00 0.00 68 1014.8
20260906041253 30 222 1.6 1.6 0.00 0.00 0.00 67 1014.8
20260906040748 30 233 0.0 0.0 0.00 0.00 0.00 67 1014.8
20260906040243 30 170 0.0 0.0 0.00 0.00 0.00 66 1014.8
20260906035738 30 204 0.0 1.6 0.00 0.00 0.00 66 1014.5
20260906035234 30 161 3.2 3.2 0.00 0.00 0.00 65 1014.5
20260906034734 30 223 1.6 3.2 0.00 0.00 0.00 65 1014.5
20260906034229 30 142 1.6 3.2 0.00 0.00 0.00 64 1014.8
20260906033725 30 189 3.2 3.2 0.00 0.00 0.00 63 1014.8
20260906033224 30 174 3.2 3.2 0.00 0.00 0.00 63 1014.8
20260906032721 30 248 0.0 1.6 0.00 0.00 0.00 62 1014.8
20260906032221 30 212 0.0 1.6 0.00 0.00 0.00 62 1014.8
20260906031716 30 232 3.2 3.2 0.00 0.00 0.00 61 1014.5
20260906031212 31 222 1.6 1.6 0.00 0.00 0.00 61 1014.5
20260906030711 31 237 1.6 1.6 0.00 0.00 0.00 60 1014.5
20260906030206 31 240 1.6 1.6 0.00 0.00 0.00 59 1014.5
20260906025706 31 133 4.8 8.0 0.00 0.00 0.00 59 1014.1
20260906025200 31 104 9.7 12.9 0.00 0.00 0.00 58 1013.8
20260906024654 31 157 4.8 8.0 0.00 0.00 0.00 58 1013.8
20260906024153 31 129 3.2 4.8 0.00 0.00 0.00 57 1013.5
20260906023650 31 81 3.2 4.8 0.00 0.00 0.00 57 1013.5
20260906023149 31 166 1.6 1.6 0.00 0.00 0.00 56 1013.5
20260906022644 32 89 3.2 3.2 0.00 0.00 0.00 56 1013.5
20260906022140 32 95 1.6 3.2 0.00 0.00 0.00 55 1012.7
20260906021636 32 61 1.6 1.6 0.00 0.00 0.00 55 1013.1
20260906021134 32 166 3.2 8.0 0.00 0.00 0.00 55 1012.7
20260906020629 32 311 6.4 11.3 0.00 0.00 0.00 54 1012.7
20260906020124 32 148 8.0 11.3 0.00 0.00 0.00 54 1012.7
20260906015618 32 265 8.0 9.7 0.00 0.00 0.00 54 1012.4
20260906015117 32 156 6.4 9.7 0.00 0.00 0.00 54 1012.7
20260906014612 32 165 1.6 3.2 0.00 0.00 0.00 54 1012.4
20260906014108 32 137 4.8 4.8 0.00 0.00 0.00 54 1012.7
20260906013603 32 90 8.0 11.3 0.00 0.00 0.00 54 1012.7
20260906013058 32 65 1.6 3.2 0.00 0.00 0.00 54 1012.7
20260906012553 32 166 1.6 3.2 0.00 0.00 0.00 54 1012.4
20260906012053 32 87 0.0 1.6 0.00 0.00 0.00 53 1012.4
20260906011549 33 218 1.6 1.6 0.00 0.00 0.00 52 1012.4
20260906011049 33 98 3.2 4.8 0.00 0.00 0.00 52 1012.4
20260906010544 32 217 0.0 1.6 0.00 0.00 0.00 51 1012.4
20260906010041 32 175 3.2 4.8 0.00 0.00 0.00 51 1012.4
20260906005540 33 172 4.8 4.8 0.00 0.00 0.00 50 1012.4
20260906005039 33 205 3.2 3.2 0.00 0.00 0.00 50 1012.4
20260906004538 32 211 4.8 8.0 0.00 0.00 0.00 50 1012.4
20260906004033 32 233 4.8 4.8 0.00 0.00 0.00 51 1012.0
20260906003528 32 134 4.8 8.0 0.00 0.00 0.00 53 1012.0
20260906003025 32 226 8.0 9.7 0.00 0.00 0.00 55 1012.4
20260906002519 33 165 8.0 9.7 0.00 0.00 0.00 53 1012.4
20260906002014 35 115 8.0 14.5 0.00 0.00 0.00 48 1012.0
20260906001510 35 126 4.8 9.7 0.00 0.00 0.00 44 1012.0
20260906001004 35 95 4.8 8.0 0.00 0.00 0.00 44 1012.0
20260906000500 36 113 3.2 3.2 0.00 0.00 0.00 43 1012.0
20260906000000 36 99 3.2 4.8 0.00 0.00 0.00 42 1012.0
20260905235454 36 61 4.8 9.7 0.00 0.00 0.00 41 1011.7
20260905234949 36 140 4.8 8.0 0.00 0.00 0.00 41 1011.7
20260905234444 37 160 3.2 3.2 0.00 0.00 0.00 40 1012.0
20260905233938 37 122 6.4 11.3 0.00 0.00 0.00 40 1012.0
20260905233434 37 165 1.6 1.6 0.00 0.00 0.00 39 1011.7
20260905232933 37 220 3.2 4.8 0.00 0.00 0.00 39 1011.7
20260905232429 37 249 0.0 1.6 0.00 0.00 0.00 39 1011.7
20260905231924 37 115 1.6 1.6 0.00 0.00 0.00 39 1011.7
20260905231420 37 121 3.2 3.2 0.00 0.00 0.00 37 1011.7
20260905230917 37 132 3.2 3.2 0.00 0.00 0.00 37 1011.7
20260905230414 37 52 0.0 0.0 0.00 0.00 0.00 37 1011.7
20260905225907 37 347 0.0 1.6 0.00 0.00 0.00 37 1011.7
20260905225403 38 56 1.6 4.8 0.00 0.00 0.00 37 1011.7
20260905224857 38 133 4.8 8.0 0.00 0.00 0.00 37 1011.7
20260905224353 37 263 1.6 3.2 0.00 0.00 0.00 37 1011.7
20260905223848 37 68 4.8 8.0 0.00 0.00 0.00 37 1011.7
20260905223346 38 277 1.6 1.6 0.00 0.00 0.00 37 1011.7
20260905222840 38 173 3.2 3.2 0.00 0.00 0.00 37 1011.7
20260905222339 38 46 0.0 0.0 0.00 0.00 0.00 36 1011.7
20260905221835 38 260 4.8 8.0 0.00 0.00 0.00 36 1011.7
20260905221332 38 197 1.6 3.2 0.00 0.00 0.00 36 1011.7
20260905220827 38 203 3.2 8.0 0.00 0.00 0.00 37 1011.7